sat.trackr.live / text

‹ back to catalog

YAOGAN-31 02A

NORAD 47532 · 2021-007A

PAYLOAD ACTIVE UNKNOWN

§ Identity

Operator
Country
PRC
Launch date
2021-01-29
Launch site
JSC
Launch vehicle
Mass (kg)
RCS (m²)

External: N2YO · Heavens-Above · Gunter

§ Orbital elements

Epoch: 2026-05-25T05:26:41.618976Z

Period
107.03 min
Inclination
63.4027°
Eccentricity
0.0173984
Mean motion
13.45446611 rev/d
Perigee alt
959.1 km
Apogee alt
1,219.0 km
Semi-major
7,467.2 km
B*
1.2105e-4
RAAN
202.1249°
Arg perigee
0.4374°
Mean anomaly
359.6774°
Rev number
26,114

§ Raw data

YAOGAN-31 02A1 47532U 21007A   26145.22687059 -.00000012  00000+0  12105-3 0  99932 47532  63.4027 202.1249 0173984   0.4374 359.6774 13.45446611261145

JSON: /api/v1/satellites/47532 · /tle

For live sub-satellite position, see the globe view (requires WebGL).

§ Visibility from observer

Set your observer location to see the next 7 days of passes ≥ 10°. The values pass through the URL so the page stays shareable.

No JS? Fill the form by hand. The geolocation button needs JavaScript.